Total_Precipitation_Accumulation
1.53 1.63 1.67 1.70 1.71 1.65 1.66 1.71 1.78 1.73 1.58 1.39 1.35 1.30 1.29 1.31 1.44 1.14 1.14 1.32 1.21 1.12 1.05 1.01 0.99 0.93 0.87 0.83 0.80 0.78 0.79 0.82 0.88 0.95 1.01 1.09 1.22 1.39
1.26 1.38 1.46 1.54 1.67 1.69 1.74 1.76 1.77 1.77 1.70 1.48 1.41 1.39 1.32 1.26 1.47 1.23 1.21 1.27 1.11 0.99 0.90 0.84 0.81 0.77 0.74 0.75 0.75 0.73 0.71 0.70 0.71 0.75 0.81 0.86 0.95 1.06
1.03 1.11 1.22 1.28 1.38 1.46 1.51 1.53 1.62 1.66 1.67 1.56 1.46 1.45 1.39 1.37 1.39 1.26 1.16 1.08 1.02 0.95 0.81 0.74 0.71 0.67 0.66 0.69 0.72 0.72 0.70 0.68 0.68 0.69 0.72 0.76 0.80 0.85
0.84 0.91 0.98 1.02 1.10 1.13 1.20 1.27 1.33 1.41 1.47 1.57 1.63 1.55 1.45 1.43 1.35 1.20 1.01 0.89 0.86 0.88 0.79 0.74 0.73 0.73 0.73 0.73 0.72 0.71 0.67 0.59 0.57 0.60 0.64 0.64 0.65 0.69
0.68 0.74 0.81 0.83 0.86 0.86 0.91 0.96 1.04 1.16 1.32 1.41 1.48 1.50 1.46 1.45 1.42 1.17 1.01 0.98 0.76 0.74 0.69 0.70 0.71 0.70 0.69 0.67 0.63 0.60 0.57 0.49 0.43 0.42 0.45 0.50 0.53 0.55
0.57 0.62 0.65 0.65 0.63 0.66 0.68 0.73 0.82 1.00 1.17 1.26 1.22 1.24 1.30 1.25 1.30 1.20 1.08 0.97 0.82 0.61 0.57 0.53 0.56 0.56 0.55 0.52 0.50 0.48 0.47 0.46 0.44 0.41 0.38 0.36 0.35 0.36
0.47 0.48 0.48 0.51 0.53 0.53 0.53 0.60 0.73 0.91 1.01 1.09 1.11 1.05 1.05 1.06 1.07 1.00 0.99 0.95 0.81 0.63 0.57 0.46 0.44 0.47 0.51 0.51 0.48 0.42 0.37 0.34 0.34 0.32 0.31 0.29 0.28 0.28
0.45 0.40 0.37 0.37 0.41 0.42 0.44 0.51 0.62 0.73 0.80 0.87 0.93 0.95 0.93 0.91 0.95 0.95 0.93 0.93 0.88 0.71 0.66 0.58 0.46 0.53 0.54 0.51 0.44 0.37 0.34 0.33 0.33 0.32 0.32 0.31 0.29 0.27
0.49 0.46 0.38 0.32 0.39 0.42 0.43 0.47 0.51 0.53 0.62 0.75 0.83 0.84 0.84 0.89 0.97 0.97 0.98 0.96 0.90 0.75 0.76 0.75 0.61 0.61 0.48 0.40 0.40 0.35 0.32 0.33 0.32 0.29 0.30 0.29 0.29 0.29
0.48 0.47 0.48 0.47 0.44 0.44 0.42 0.45 0.49 0.55 0.60 0.66 0.79 0.80 0.74 0.78 0.91 0.95 0.92 0.88 0.83 0.78 0.82 0.85 0.67 0.59 0.45 0.51 0.46 0.36 0.30 0.33 0.34 0.27 0.25 0.24 0.24 0.26
0.37 0.38 0.38 0.42 0.42 0.43 0.44 0.48 0.51 0.56 0.53 0.59 0.64 0.69 0.75 0.77 0.77 0.80 0.89 0.99 0.97 0.84 0.82 0.89 0.76 0.61 0.52 0.58 0.54 0.42 0.38 0.43 0.41 0.31 0.25 0.23 0.23 0.25
0.35 0.35 0.34 0.31 0.31 0.32 0.38 0.52 0.61 0.58 0.53 0.57 0.72 0.88 0.94 0.91 0.81 0.82 0.93 1.01 1.02 1.03 0.87 0.88 0.89 0.75 0.68 0.57 0.56 0.57 0.60 0.66 0.59 0.43 0.31 0.27 0.27 0.31
0.37 0.37 0.35 0.28 0.25 0.26 0.33 0.45 0.51 0.49 0.55 0.73 0.93 1.03 1.01 0.92 0.81 0.76 0.84 0.95 1.02 1.07 0.89 0.86 0.92 0.93 0.95 0.78 0.57 0.61 0.73 0.85 0.85 0.69 0.47 0.39 0.34 0.31
0.35 0.34 0.32 0.29 0.25 0.26 0.29 0.35 0.37 0.46 0.65 0.86 0.97 0.94 0.80 0.69 0.67 0.64 0.67 0.75 0.89 0.89 0.80 0.83 0.92 0.96 0.98 0.90 0.72 0.66 0.79 0.94 1.00 0.91 0.72 0.59 0.52 0.44
0.31 0.30 0.30 0.31 0.32 0.38 0.39 0.37 0.43 0.60 0.76 0.86 0.88 0.82 0.70 0.62 0.59 0.60 0.59 0.68 0.73 0.66 0.56 0.61 0.76 0.83 0.92 0.93 0.89 0.92 0.99 1.13 1.14 1.09 0.96 0.78 0.65 0.56
0.31 0.35 0.43 0.47 0.48 0.50 0.54 0.59 0.63 0.67 0.68 0.76 0.76 0.69 0.61 0.56 0.55 0.53 0.57 0.63 0.69 0.67 0.58 0.54 0.63 0.78 0.90 0.90 0.98 1.08 1.11 1.30 1.30 1.20 1.13 1.04 0.87 0.69
0.29 0.41 0.57 0.62 0.63 0.61 0.60 0.61 0.64 0.63 0.65 0.64 0.62 0.60 0.58 0.53 0.51 0.47 0.49 0.54 0.63 0.64 0.62 0.56 0.58 0.64 0.66 0.72 0.85 0.93 1.01 1.17 1.26 1.20 1.16 1.22 1.18 0.94
0.32 0.52 0.62 0.65 0.67 0.61 0.57 0.54 0.53 0.53 0.51 0.51 0.53 0.54 0.55 0.52 0.51 0.48 0.46 0.49 0.55 0.54 0.53 0.52 0.54 0.58 0.56 0.55 0.74 0.87 0.91 1.09 1.17 1.10 1.00 1.13 1.23 1.04
0.35 0.48 0.56 0.61 0.61 0.54 0.50 0.49 0.49 0.48 0.45 0.44 0.47 0.48 0.48 0.48 0.48 0.49 0.47 0.47 0.49 0.49 0.46 0.42 0.46 0.51 0.54 0.63 0.75 0.89 0.91 0.97 1.00 0.96 0.91 0.92 1.09 1.07
0.35 0.41 0.47 0.50 0.51 0.47 0.44 0.42 0.42 0.42 0.40 0.39 0.40 0.43 0.44 0.43 0.41 0.43 0.43 0.40 0.43 0.45 0.43 0.41 0.42 0.47 0.52 0.59 0.79 0.91 0.91 0.78 0.74 0.79 0.81 0.85 0.95 0.95
0.32 0.36 0.37 0.37 0.37 0.38 0.39 0.38 0.35 0.35 0.34 0.34 0.35 0.37 0.38 0.38 0.38 0.35 0.33 0.30 0.34 0.38 0.41 0.43 0.42 0.37 0.39 0.43 0.60 0.77 0.82 0.87 0.78 0.69 0.68 0.72 0.71 0.63
0.28 0.31 0.31 0.30 0.29 0.28 0.28 0.29 0.29 0.28 0.25 0.26 0.31 0.36 0.36 0.35 0.34 0.30 0.30 0.33 0.35 0.37 0.38 0.37 0.36 0.34 0.37 0.45 0.59 0.72 0.72 0.66 0.65 0.68 0.66 0.52 0.41 0.42
0.27 0.28 0.26 0.24 0.23 0.22 0.22 0.22 0.22 0.23 0.23 0.24 0.28 0.32 0.31 0.29 0.27 0.24 0.22 0.22 0.23 0.25 0.30 0.33 0.33 0.33 0.35 0.39 0.45 0.49 0.48 0.44 0.37 0.37 0.50 0.54 0.46 0.44